Home   Weather   Norrköping   Past weeks

Flag for Sweden Past Weather in Norrköping, Sweden — Yesterday and Last 2 Weeks

Now
55 °F

Passing clouds.


Feels Like: 55 °F
Forecast: 50 / 71 °F
Wind: No wind

Location: Norrkoping Airport

Current Time: Jul 24, 2017 at 12:55:34 am

Latest Report: Jul 24, 2017 at 12:20 am


Visibility: 6 mi

Pressure: 30.01 "Hg

Humidity: 94%

Dew Point: 54 °F

Location of NorrköpingLocation

Past Weather in Norrköping — Graph

°F

Norrköping Temperature Yesterday

Maximum temperature yesterday: 73 °F (at 11:50 am)
Minimum temperature yesterday: 48 °F (at 4:20 am)
Average temperature yesterday: 62 °F

High & Low Weather Summary for the Past Weeks

 TemperatureHumidityPressure
High77 °F (Jul 22, 3:50 pm)100% (Jul 8, 11:20 pm)30.15 "Hg (Jul 8, 11:20 pm)
Low43 °F (Jul 22, 4:20 am)25% (Jul 14, 5:20 pm)29.59 "Hg (Jul 11, 7:50 pm)
Average62 °F66%29.89 "Hg
* Reported Jul 8 11:20 pm — Jul 23 11:20 pm, Norrköping. Weather by CustomWeather, © 2017

Note: Actual official high and low records may vary slightly from our data, if they occured in-between our weather recording intervals... More about our weather records

Advertising

Norrköping Weather History for the Previous 24 Hours

Scroll right to see more
 ConditionsComfort  
Time TempWeatherWind HumidityBarometerVisibility
11:20 pm
Sun, Jul 23
55 °FPassing clouds.3 mph94%30.01 "HgN/A
10:50 pm55 °FCool.3 mph94%30.01 "HgN/A
10:20 pm55 °FPassing clouds.6 mph94%30.01 "HgN/A
9:50 pm59 °FPassing clouds.6 mph77%30.01 "HgN/A
9:20 pm59 °FSunny.8 mph72%30.01 "Hg10 mi
8:50 pm61 °FSunny.8 mph68%30.01 "Hg10 mi
8:20 pm63 °FSunny.10 mph56%30.01 "Hg10 mi
7:50 pm64 °FSunny.12 mph49%30.01 "Hg10 mi
7:20 pm66 °FSunny.14 mph52%30.01 "Hg10 mi
6:50 pm66 °FSunny.12 mph56%30.01 "Hg10 mi
6:20 pm68 °FSunny.13 mph53%30.01 "Hg10 mi
5:20 pm70 °FPassing clouds.13 mph53%30.01 "HgN/A
4:50 pm70 °FPassing clouds.13 mph57%30.04 "HgN/A
3:50 pm72 °FPassing clouds.12 mph50%30.04 "HgN/A
3:20 pm72 °FPassing clouds.12 mph50%30.04 "HgN/A
2:50 pm72 °FPassing clouds.13 mph50%30.04 "HgN/A
2:20 pm70 °FPassing clouds.12 mph53%30.07 "HgN/A
1:50 pm70 °FPassing clouds.13 mph53%30.07 "HgN/A
1:20 pm72 °FPassing clouds.14 mph53%30.07 "HgN/A
12:50 pm72 °FPartly sunny.10 mph50%30.07 "HgN/A
12:20 pm73 °FPassing clouds.6 mph44%30.07 "HgN/A
11:50 am73 °FMild.5 mph44%30.07 "HgN/A
11:20 am72 °FMild.7 mph44%30.07 "HgN/A
10:50 am72 °FMild.6 mph44%30.07 "HgN/A
10:20 am70 °FMild.6 mph43%30.07 "HgN/A
9:50 am70 °FMild.5 mph40%30.09 "HgN/A
9:20 am66 °FPassing clouds.6 mph43%30.09 "HgN/A
8:50 am63 °FPartly sunny.2 mph73%30.09 "HgN/A
7:50 am61 °FCool.No wind68%30.09 "HgN/A
7:20 am59 °FCool.No wind72%30.09 "HgN/A
6:50 am55 °FCool.1 mph88%30.09 "HgN/A
6:20 am52 °FCool.2 mph94%30.09 "HgN/A
5:50 am48 °FCool.2 mph100%30.09 "HgN/A
5:20 am48 °FCool.2 mph94%30.09 "HgN/A
4:50 am48 °FCool.3 mph100%30.09 "HgN/A
4:20 am48 °FCool.2 mph87%30.12 "HgN/A
3:20 am50 °FCool.2 mph88%30.12 "HgN/A
2:50 am50 °FCool.1 mph88%30.12 "HgN/A
2:20 am52 °FCool.1 mph88%30.12 "Hg5 mi
1:50 am52 °FCool.No wind88%30.12 "HgN/A
1:20 am52 °FCool.2 mph88%30.12 "HgN/A
12:50 am52 °FClear.No wind88%30.12 "Hg10 mi
12:20 am52 °FClear.2 mph88%30.12 "Hg10 mi
Weather by CustomWeather, © 2017

See weather overviewHow to use our weather pages